Waarnemingen

Advertentie
Mijn weer
A12-CPP, Nederland (6205): temperatuur & dauwpunt: 21.06.2017 02:00:00 - 27.06.2017 02:00:00 (CEST)A12-CPP, Nederland (6205): windsnelheid & windstoten: 21.06.2017 02:00:00 - 27.06.2017 02:00:00 (CEST)A12-CPP, Nederland (6205): windrichting: 21.06.2017 02:00:00 - 27.06.2017 02:00:00 (CEST)A12-CPP, Nederland (6205): luchtdruk: 21.06.2017 02:00:00 - 27.06.2017 02:00:00 (CEST)A12-CPP, Nederland (6205): zicht: 21.06.2017 02:00:00 - 27.06.2017 02:00:00 (CEST)
Datum & Tijd tt [°C] td [°C] ff [km/u] ff [kn] fx [km/u] fx [kn] dd ppp [hPa] vv [km]
27.06.2017 02:00:00 12,3 5,8 18 10 22 12 N 1014,7 10
27.06.2017 01:00:00 12,3 7,0 21 11 25 14 N 1014,7 10
27.06.2017 00:00:00 12,4 6,5 24 13 25 14 N 1014,6 10
26.06.2017 23:00:00 12,5 7,0 26 14 29 16 NNW 1014,4 10
26.06.2017 22:00:00 12,6 6,7 26 14 29 16 NNW 1014,7 10
26.06.2017 21:00:00 12,8 6,7 26 14 29 16 NNW 1014,5 10
26.06.2017 20:00:00 12,9 7,6 28 15 29 16 N 1014,5 10
26.06.2017 19:00:00 12,9 7,6 26 14 29 16 NNW 1014,3 10
26.06.2017 18:00:00 13,1 8,2 29 16 29 16 NNW 1014,1 10
26.06.2017 17:00:00 13,1 7,9 31 17 32 18 NNW 1014,0 10
26.06.2017 16:00:00 13,3 7,3 29 16 32 18 NW 1013,7 10
26.06.2017 15:00:00 13,2 7,8 34 18 36 19 NW 1013,6 10
26.06.2017 14:00:00 13,1 8,8 35 19 36 19 NNW 1013,3 10
26.06.2017 13:00:00 13,0 8,4 39 21 36 19 NW 1012,9 10
26.06.2017 12:00:00 12,9 8,4 35 19 36 19 NW 1012,4 10
26.06.2017 11:00:00 12,7 8,0 37 20 40 21 NW 1011,9 10
26.06.2017 10:00:00 12,8 8,0 37 20 43 23 NNW 1011,5 10
26.06.2017 09:00:00 12,8 7,4 41 22 43 23 NNW 1010,9 10
26.06.2017 08:00:00 12,9 8,2 42 23 43 23 NNW 1010,4 10
26.06.2017 07:00:00 12,8 7,6 46 25 47 25 NNW 1009,7 10
26.06.2017 06:00:00 12,8 8,3 46 25 47 25 NNW 1009,2 10
26.06.2017 05:00:00 12,8 7,9 46 25 47 25 NNW 1009,0 10
26.06.2017 04:00:00 13,0 8,1 42 23 43 23 NNW 1008,6 10
26.06.2017 03:00:00 13,0 8,6 42 23 40 21 NNW 1008,5 10
26.06.2017 02:00:00 13,3 8,7 34 18 40 21 NW 1008,2 10
26.06.2017 01:00:00 13,4 10,3 39 21 40 21 NW 1008,2 10
26.06.2017 00:00:00 13,7 9,5 35 19 43 23 W 1008,2 10
25.06.2017 23:00:00 13,2 9,1 41 22 50 27 WZW 1007,9 10
25.06.2017 22:00:00 14,2 9,3 41 22 40 21 WZW 1007,4 10
25.06.2017 21:00:00 14,2 8,9 41 22 40 21 W 1007,3 10
25.06.2017 20:00:00 13,9 8,7 37 20 36 19 W 1007,3 10
25.06.2017 19:00:00 14,0 8,3 37 20 40 21 W 1007,0 10
25.06.2017 18:00:00 13,8 9,0 37 20 40 21 W 1007,3 10
25.06.2017 17:00:00 13,6 8,7 39 21 40 21 W 1007,1 10
25.06.2017 16:00:00 13,4 8,2 41 22 40 21 W 1006,8 10
25.06.2017 15:00:00 13,1 7,9 39 21 43 23 W 1006,8 10
25.06.2017 14:00:00 13,1 8,1 41 22 43 23 W 1006,5 10
25.06.2017 13:00:00 13,0 7,8 41 22 43 23 W 1006,3 10
25.06.2017 12:00:00 13,2 8,2 44 24 47 25 W 1005,7 10
25.06.2017 11:00:00 13,0 7,4 44 24 47 25 W 1005,3 10
25.06.2017 10:00:00 13,1 6,8 48 26 47 25 W 1004,9 10
25.06.2017 09:00:00 13,3 7,2 46 25 50 27 W 1004,6 10
25.06.2017 08:00:00 13,4 7,3 44 24 50 27 WNW 1004,4 10
25.06.2017 07:00:00 13,6 7,3 52 28 50 27 W 1004,2 10
25.06.2017 06:00:00 13,8 7,7 52 28 54 29 W 1004,0 10
25.06.2017 05:00:00 14,1 8,4 41 22 58 31 W 1004,1 10
25.06.2017 04:00:00 14,5 7,9 44 24 47 25 W 1004,2 10
25.06.2017 03:00:00 14,7 9,0 37 20 43 23 W 1004,7 10
25.06.2017 02:00:00 14,8 8,5 34 18 36 19 W 1005,2 10
25.06.2017 01:00:00 14,6 11,6 24 13 36 19 W 1005,6 10
25.06.2017 00:00:00 15,1 11,3 37 20 43 23 WZW 1005,8 10
24.06.2017 23:00:00 15,2 11,8 44 24 47 25 ZW 1005,8 10
24.06.2017 22:00:00 15,1 11,8 44 24 47 25 ZZW 1005,8 10
24.06.2017 21:00:00 15,0 11,6 41 22 43 23 ZW 1006,0 10
24.06.2017 20:00:00 14,9 11,2 42 23 43 23 ZW 1006,4 10
24.06.2017 19:00:00 14,9 9,8 41 22 43 23 ZW 1006,7 10
24.06.2017 18:00:00 14,5 8,8 39 21 43 23 ZW 1007,4 10
24.06.2017 17:00:00 14,5 7,6 46 25 47 25 WZW 1007,9 10
24.06.2017 16:00:00 14,2 7,8 44 24 47 25 WZW 1008,2 10
24.06.2017 15:00:00 14,0 7,1 48 26 50 27 W 1008,2 10
24.06.2017 14:00:00 13,9 8,1 46 25 47 25 W 1008,3 10
24.06.2017 13:00:00 13,9 7,0 42 23 43 23 W 1007,8 10
24.06.2017 12:00:00 13,8 7,9 44 24 47 25 W 1007,6 10
24.06.2017 11:00:00 13,6 6,3 42 23 47 25 WNW 1007,0 10
24.06.2017 10:00:00 13,7 7,7 44 24 43 23 W 1007,0 10
24.06.2017 09:00:00 13,8 8,4 37 20 40 21 WNW 1007,0 10
24.06.2017 08:00:00 14,2 10,5 34 18 32 18 W 1006,8 10
24.06.2017 07:00:00 14,4 11,8 28 15 29 16 W 1006,6 10
24.06.2017 06:00:00 14,1 12,4 34 18 32 18 W 1006,7 10
24.06.2017 05:00:00 14,2 13,3 28 15 29 16 WZW 1007,2 10
24.06.2017 04:00:00 14,3 12,2 31 17 32 18 WZW 1007,4 9
24.06.2017 03:00:00 14,6 11,9 34 18 36 19 WZW 1007,6 10
24.06.2017 02:00:00 15,2 13,6 37 20 36 19 WZW 1007,9 10
24.06.2017 01:00:00 14,8 14,0 35 19 40 21 WZW 1008,4 7
24.06.2017 00:00:00 15,1 13,8 37 20 40 21 WZW 1008,7 6
23.06.2017 23:00:00 15,3 13,9 41 22 43 23 WZW 1009,0 6
23.06.2017 22:00:00 15,6 13,6 42 23 43 23 WZW 1008,9 10
23.06.2017 21:00:00 15,6 13,4 36 19 43 23 ZW 1008,8 18
23.06.2017 20:00:00 15,2 13,4 44 24 43 23 ZW 1008,8 10
23.06.2017 19:00:00 15,2 13,2 41 22 47 25 ZW 1009,1 10
23.06.2017 18:00:00 15,1 13,0 48 26 50 27 ZW 1009,2 10
23.06.2017 17:00:00 15,0 12,9 50 27 50 27 ZW 1009,1 10
23.06.2017 16:00:00 15,0 12,9 48 26 47 25 WZW 1008,9 10
23.06.2017 15:00:00 14,9 12,8 39 21 43 23 ZW 1008,9 10
23.06.2017 14:00:00 14,8 12,8 37 20 40 21 ZW 1008,8 10
23.06.2017 13:00:00 14,4 12,8 34 18 43 23 ZW 1009,2 10
23.06.2017 12:00:00 14,5 12,6 37 20 36 19 ZW 1009,2 10
23.06.2017 11:00:00 14,7 12,3 35 19 36 19 ZW 1009,3 10
23.06.2017 10:00:00 14,6 12,8 34 18 36 19 ZW 1009,1 10
23.06.2017 09:00:00 14,6 13,0 28 15 32 18 WZW 1009,2 10
23.06.2017 08:00:00 14,1 13,0 24 13 29 16 WZW 1008,8 10
23.06.2017 07:00:00 14,3 12,4 29 16 29 16 WZW 1008,7 10
23.06.2017 06:00:00 14,3 12,6 26 14 29 16 WNW 1008,6 10
23.06.2017 05:00:00 14,2 12,5 28 15 32 18 NW 1008,4 10
23.06.2017 04:00:00 14,1 12,6 29 16 32 18 NW 1008,7 10
23.06.2017 03:00:00 13,9 12,7 31 17 36 19 NW 1008,4 10
23.06.2017 02:00:00 14,6 13,1 35 19 43 23 NNW 1008,0 10
23.06.2017 01:00:00 14,5 13,5 41 22 43 23 NNW 1007,4 9
23.06.2017 00:00:00 14,5 14,0 44 24 43 23 NNW 1007,0 10
22.06.2017 23:00:00 14,3 14,2 44 24 47 25 NNW 1005,8 0,5
22.06.2017 22:00:00 14,7 14,4 41 22 40 21 NNW 1005,4 0,3
22.06.2017 21:00:00 14,8 14,6 31 17 32 18 NNW 1005,0 0,4
22.06.2017 20:00:00 15,0 14,8 26 14 25 14 NW 1004,8 0,2
22.06.2017 19:00:00 15,3 14,9 21 11 25 14 N 1004,5 0,8
22.06.2017 18:00:00 16,0 15,1 24 13 22 12 NNW 1004,3 6
22.06.2017 17:00:00 15,7 14,9 16 9 18 10 WNW 1004,2 6
22.06.2017 16:00:00 15,7 14,9 16 9 18 10 WNW 1004,5 7
22.06.2017 15:00:00 15,9 15,0 11 6 11 6 WZW 1004,6 7
22.06.2017 14:00:00 16,2 15,1 9 5 14 8 WZW 1004,8 7
22.06.2017 13:00:00 16,0 14,4 16 9 36 19 ZW 1005,3 8
22.06.2017 12:00:00 16,2 14,3 39 21 40 21 Z 1004,6 10
22.06.2017 11:00:00 15,9 14,7 39 21 40 21 ZZO 1004,7 9
22.06.2017 10:00:00 15,9 14,3 44 24 43 23 ZZO 1004,9 10
22.06.2017 09:00:00 15,5 14,3 44 24 47 25 ZO 1005,6 10
22.06.2017 08:00:00 15,6 14,3 35 19 54 29 ZO 1006,2 10
22.06.2017 07:00:00 15,5 14,1 35 19 40 21 O 1007,4 10
22.06.2017 06:00:00 16,0 13,5 34 18 43 23 ONO 1008,9 10
22.06.2017 05:00:00 15,6 13,9 52 28 50 27 ZZO 1007,8 3,0
22.06.2017 04:00:00 15,3 13,1 46 25 43 23 ZZO 1009,1 6
22.06.2017 03:00:00 15,2 12,8 36 19 43 23 ZO 1010,3 21
22.06.2017 02:00:00 15,0 12,7 44 24 43 23 ZO 1011,4 10
22.06.2017 01:00:00 14,8 12,2 39 21 40 21 ZO 1012,8 10
22.06.2017 00:00:00 14,8 11,9 34 18 40 21 ZO 1013,4 10
21.06.2017 23:00:00 14,6 11,8 35 19 36 19 ZZO 1013,8 10
21.06.2017 22:00:00 14,3 12,1 31 17 29 16 ZZO 1014,6 10
21.06.2017 21:00:00 13,9 11,0 28 15 29 16 ZZO 1015,4 10
21.06.2017 20:00:00 13,3 11,3 29 16 29 16 ZZO 1015,8 10
21.06.2017 19:00:00 13,0 10,6 29 16 36 19 ZZO 1016,2 10
21.06.2017 18:00:00 12,9 10,3 34 18 36 19 ZZO 1016,1 10
21.06.2017 17:00:00 13,4 10,3 24 13 25 14 Z 1018,1 7
21.06.2017 16:00:00 13,5 9,6 15 8 18 10 ZZO 1018,2 10
21.06.2017 15:00:00 13,7 9,3 15 8 22 12 ZZO 1019,4 10
21.06.2017 14:00:00 13,6 9,1 18 10 22 12 ZZO 1019,6 47
21.06.2017 13:00:00 13,6 8,4 18 10 29 16 ZZO 1019,3 10
21.06.2017 12:00:00 13,5 7,6 15 8 18 10 ZZO 1020,1 10
21.06.2017 11:00:00 13,4 8,3 9 5 11 6 - 1020,6 10
21.06.2017 10:00:00 13,5 8,1 8 4 11 6 - 1020,8 10
21.06.2017 09:00:00 13,2 7,9 8 4 11 6 ONO 1021,1 10
21.06.2017 08:00:00 13,2 7,8 5 3 11 6 NNO 1021,2 10
21.06.2017 07:00:00 13,1 7,6 9 5 11 6 N 1021,3 10
21.06.2017 06:00:00 13,0 8,2 9 5 11 6 N 1021,0 10
21.06.2017 05:00:00 13,2 8,8 9 5 11 6 N 1021,2 10
21.06.2017 04:00:00 13,2 8,0 8 4 11 6 N 1021,3 10
21.06.2017 03:00:00 13,2 8,2 11 6 14 8 N 1022,0 10
21.06.2017 02:00:00 13,3 8,3 9 5 14 8 N 1022,4 10

tt = temperatuur
td = dauwpunt
ff = windsnelheid
fx = windstoten
dd = windrichting
ppp = luchtdruk
vv = zicht

Weerstations in de omgeving